TimeEDT,TemperatureF,Dew PointF,Humidity,Sea Level PressureIn,VisibilityMPH,Wind Direction,Wind SpeedMPH,Gust SpeedMPH,PrecipitationIn,Events,Conditions,WindDirDegrees,DateUTC
12:00 AM,59.0,51.6,76,30.09,-9999.0,ESE,3.5,-,N/A,,Unknown,120,2013-05-01 04:00:00
1:00 AM,57.9,51.3,78,30.09,-9999.0,SE,9.2,-,N/A,,Unknown,130,2013-05-01 05:00:00
2:00 AM,58,51,70,30.10,,SE,9.2,,,,,140,2013-05-01 06:00:00
2:00 AM,57.6,50.9,78,30.10,-9999.0,SE,9.2,-,N/A,,Unknown,140,2013-05-01 06:00:00
3:00 AM,53.1,48.2,84,30.12,-9999.0,ENE,3.5,-,N/A,,Unknown,60,2013-05-01 07:00:00
4:00 AM,55.4,49.8,81,30.13,-9999.0,SE,6.9,-,N/A,,Unknown,130,2013-05-01 08:00:00
5:00 AM,55.2,50.0,83,30.15,-9999.0,SE,5.8,-,N/A,,Unknown,130,2013-05-01 09:00:00
6:00 AM,55.2,49.8,82,30.18,-9999.0,SSE,4.6,-,N/A,,Unknown,160,2013-05-01 10:00:00
7:00 AM,55.4,49.8,81,30.20,-9999.0,SE,10.4,18.4,N/A,,Unknown,140,2013-05-01 11:00:00
8:00 AM,58,51,70,30.22,,SSE,9.2,,,,,150,2013-05-01 12:00:00
8:00 AM,58.3,50.7,76,30.22,-9999.0,SSE,9.2,-,N/A,,Unknown,150,2013-05-01 12:00:00
9:00 AM,63.5,52.0,66,30.22,-9999.0,South,9.2,-,N/A,,Unknown,170,2013-05-01 13:00:00
10:00 AM,69.6,52.7,55,30.23,-9999.0,South,8.1,-,N/A,,Unknown,170,2013-05-01 14:00:00
11:00 AM,72.3,53.4,51,30.22,-9999.0,South,10.4,-,N/A,,Unknown,170,2013-05-01 15:00:00
12:00 PM,74.5,52.9,47,30.23,-9999.0,SSE,11.5,-,N/A,,Unknown,160,2013-05-01 16:00:00
1:00 PM,76.1,53.2,45,30.23,-9999.0,South,10.4,18.4,N/A,,Unknown,170,2013-05-01 17:00:00
2:00 PM,78,53,31,30.23,,South,5.8,,,,,170,2013-05-01 18:00:00
2:00 PM,77.9,53.2,42,30.23,-9999.0,South,5.8,-,N/A,,Unknown,170,2013-05-01 18:00:00
3:00 PM,78.4,51.1,38,30.22,-9999.0,South,8.1,-,N/A,,Unknown,170,2013-05-01 19:00:00
4:00 PM,78.6,51.3,38,30.22,-9999.0,SE,10.4,-,N/A,,Unknown,130,2013-05-01 20:00:00
5:00 PM,78.4,52.2,40,30.22,-9999.0,SE,10.4,-,N/A,,Unknown,140,2013-05-01 21:00:00
6:00 PM,77.2,52.7,42,30.22,-9999.0,SE,11.5,19.6,N/A,,Unknown,140,2013-05-01 22:00:00
7:00 PM,75.4,50.5,42,30.23,-9999.0,SSE,11.5,-,N/A,,Unknown,150,2013-05-01 23:00:00
8:00 PM,73,52,37,30.25,,SE,9.2,,,,,140,2013-05-02 00:00:00
8:00 PM,72.7,52.0,48,30.25,-9999.0,SE,9.2,-,N/A,,Unknown,140,2013-05-02 00:00:00
9:00 PM,69.4,52.2,54,30.26,-9999.0,SE,6.9,-,N/A,,Unknown,140,2013-05-02 01:00:00
10:00 PM,66.7,52.0,59,30.27,-9999.0,SSE,8.1,-,N/A,,Unknown,160,2013-05-02 02:00:00
11:00 PM,64.0,51.1,63,30.27,-9999.0,SSE,6.9,-,N/A,,Unknown,160,2013-05-02 03:00:00